Change the Weather History Date:

Monday, January 24, 2011

  Actual Average Record
Temperature  
Mean Temperature 20 °F -  
Max Temperature 28 °F 31 °F 55 °F (2002)
Min Temperature 12 °F 17 °F -7 °F (2014)
Degree Days  
Heating Degree Days 45    
Moisture  
Dew Point 14 °F    
Average Humidity 81    
Maximum Humidity 100    
Minimum Humidity 68    
Precipitation  
Precipitation 0.00 in - - ()
Sea Level Pressure  
Sea Level Pressure 30.15 in    
Wind  
Wind Speed 9 mph (South)    
Max Wind Speed 16 mph    
Max Gust Speed 23 mph    
Visibility 9 miles    
Events      
Averages and records for this station are not official NWS values.
T = Trace of Precipitation, MM = Missing Value Source: NWS Daily Summary

Daily Weather History Graph

Daily Weather History Graph

Search for Another Location

Airport or City:

Trip Planner

Search our weather history database for the weather conditions in past years. The results will help you decide how hot, cold, wet, or windy it might be!

Date:

Astronomy

Jan. 24, 2011 Rise Set
Actual Time 7:29 AM EST 5:33 PM EST
Civil Twilight 7:01 AM EST 6:01 PM EST
Nautical Twilight 6:29 AM EST 6:33 PM EST
Astronomical Twilight 5:58 AM EST 7:04 PM EST
Moon 11:35 PM EST (1/24) 10:03 AM EST (1/24)
Length of Visible Light 11h 00m
Length of Day
10h 03m
Waning Gibbous, 71% of the Moon is Illuminated
Jan 24
Waning Gibbous
Jan 26
Last Quarter
Feb 2
New
Feb 11
First Quarter
Feb 18
Full

Hourly Weather History & Observations

Time (EST) Temp. Windchill Dew Point Humidity Pressure Visibility Wind Dir Wind Speed Gust Speed Precip Events Conditions
12:00 AM 12.2 °F -1.0 °F 8.6 °F 85% 30.11 in 10.0 mi WSW 10.4 mph - N/A   Clear
12:20 AM 14.0 °F 2.0 °F 8.6 °F 79% 30.11 in 10.0 mi WSW 9.2 mph - N/A   Clear
12:40 AM 15.8 °F 3.4 °F 12.2 °F 86% 30.11 in 10.0 mi WSW 10.4 mph - N/A   Clear
1:00 AM 17.6 °F 5.0 °F 12.2 °F 79% 30.11 in 10.0 mi WSW 11.5 mph - N/A   Clear
1:20 AM 17.6 °F 5.0 °F 14.0 °F 86% 30.11 in 10.0 mi WSW 11.5 mph - N/A   Clear
1:40 AM 19.4 °F 7.9 °F 14.0 °F 80% 30.11 in 10.0 mi SW 10.4 mph - N/A   Clear
2:00 AM 17.6 °F 7.3 °F 12.2 °F 79% 30.11 in 10.0 mi South 8.1 mph - N/A   Clear
2:20 AM 15.8 °F 5.1 °F 12.2 °F 86% 30.12 in 10.0 mi South 8.1 mph - N/A   Clear
2:40 AM 15.8 °F 5.1 °F 12.2 °F 86% 30.12 in 10.0 mi South 8.1 mph - N/A   Clear
3:00 AM 15.8 °F 2.1 °F 10.4 °F 79% 30.13 in 10.0 mi South 12.7 mph - N/A   Clear
3:20 AM 15.8 °F 2.1 °F 8.6 °F 73% 30.13 in 10.0 mi South 12.7 mph 17.3 mph N/A   Clear
3:40 AM 15.8 °F 2.1 °F 6.8 °F 68% 30.13 in 10.0 mi South 12.7 mph 21.9 mph N/A   Clear
4:00 AM 15.8 °F 1.4 °F 6.8 °F 68% 30.13 in 10.0 mi South 13.8 mph 18.4 mph N/A   Clear
4:20 AM 15.8 °F 0.9 °F 6.8 °F 68% 30.13 in 10.0 mi South 15.0 mph 21.9 mph N/A   Mostly Cloudy
4:40 AM 15.8 °F 0.3 °F 6.8 °F 68% 30.14 in 10.0 mi South 16.1 mph 20.7 mph N/A   Overcast
5:00 AM 15.8 °F 0.3 °F 8.6 °F 73% 30.14 in 10.0 mi South 16.1 mph 23.0 mph N/A   Scattered Clouds
5:20 AM 15.8 °F 1.4 °F 8.6 °F 73% 30.14 in 10.0 mi South 13.8 mph 19.6 mph N/A   Mostly Cloudy
5:40 AM 15.8 °F 2.7 °F 8.6 °F 73% 30.14 in 10.0 mi South 11.5 mph 19.6 mph N/A   Mostly Cloudy
6:00 AM 15.8 °F 3.4 °F 8.6 °F 73% 30.14 in 10.0 mi South 10.4 mph - N/A   Scattered Clouds
6:20 AM 15.8 °F 5.1 °F 8.6 °F 73% 30.14 in 10.0 mi South 8.1 mph - N/A   Clear
6:40 AM 15.8 °F 5.1 °F 8.6 °F 73% 30.15 in 10.0 mi South 8.1 mph - N/A   Clear
7:00 AM 12.2 °F 1.7 °F 8.6 °F 85% 30.16 in 10.0 mi SSW 6.9 mph - N/A   Scattered Clouds
7:20 AM 12.2 °F -0.2 °F 8.6 °F 85% 30.17 in 10.0 mi South 9.2 mph - N/A   Mostly Cloudy
7:40 AM 12.2 °F -1.0 °F 8.6 °F 85% 30.18 in 5.0 mi South 10.4 mph - N/A   Overcast
8:00 AM 12.2 °F -0.2 °F 10.4 °F 92% 30.18 in 5.0 mi South 9.2 mph - N/A   Overcast
8:20 AM 14.0 °F 2.0 °F 12.2 °F 93% 30.18 in 2.5 mi South 9.2 mph - N/A   Overcast
8:40 AM 14.0 °F 2.9 °F 12.2 °F 93% 30.18 in 4.0 mi South 8.1 mph - N/A   Overcast
9:00 AM 14.0 °F 2.0 °F 12.2 °F 93% 30.18 in 2.0 mi South 9.2 mph - N/A   Overcast
9:20 AM 15.8 °F 3.4 °F 14.0 °F 93% 30.19 in 2.0 mi South 10.4 mph - N/A   Overcast
9:40 AM 15.8 °F 3.4 °F 15.8 °F 100% 30.18 in 2.5 mi South 10.4 mph - N/A   Overcast
10:00 AM 17.6 °F 8.2 °F 15.8 °F 93% 30.20 in 10.0 mi South 6.9 mph - N/A   Overcast
10:20 AM 19.4 °F 8.6 °F 17.6 °F 93% 30.19 in 10.0 mi South 9.2 mph - N/A   Overcast
10:40 AM 19.4 °F 12.8 °F 17.6 °F 93% 30.19 in 10.0 mi SW 4.6 mph - N/A   Overcast
11:00 AM 21.2 °F 13.6 °F 19.4 °F 93% 30.19 in 10.0 mi South 5.8 mph - N/A   Overcast
11:20 AM 21.2 °F 14.9 °F 17.6 °F 86% 30.19 in 10.0 mi South 4.6 mph - N/A   Overcast
12:00 PM 21.2 °F 13.6 °F 19.4 °F 93% 30.17 in 10.0 mi SSE 5.8 mph - N/A   Overcast
12:20 PM 21.2 °F 16.4 °F 19.4 °F 93% 30.17 in 10.0 mi SSW 3.5 mph - N/A   Mostly Cloudy
12:40 PM 26.6 °F 19.1 °F 21.2 °F 80% 30.16 in 10.0 mi WSW 6.9 mph - N/A   Mostly Cloudy
1:00 PM 24.8 °F 16.9 °F 19.4 °F 80% 30.16 in 10.0 mi SW 6.9 mph - N/A   Scattered Clouds
1:20 PM 26.6 °F 20.0 °F 21.2 °F 80% 30.15 in 10.0 mi SW 5.8 mph - N/A   Scattered Clouds
1:40 PM 24.8 °F 20.5 °F 19.4 °F 80% 30.14 in 10.0 mi South 3.5 mph - N/A   Overcast
2:00 PM 26.6 °F 20.0 °F 19.4 °F 74% 30.14 in 10.0 mi SSW 5.8 mph - N/A   Mostly Cloudy
2:20 PM 28.4 °F 22.2 °F 19.4 °F 69% 30.14 in 10.0 mi South 5.8 mph - N/A   Scattered Clouds
2:40 PM 26.6 °F 22.6 °F 19.4 °F 74% 30.15 in 10.0 mi SSE 3.5 mph - N/A   Overcast
3:00 PM 26.6 °F 20.0 °F 19.4 °F 74% 30.14 in 10.0 mi SE 5.8 mph - N/A   Overcast
3:20 PM 24.8 °F 19.1 °F 17.6 °F 74% 30.14 in 10.0 mi SE 4.6 mph - N/A   Overcast
3:40 PM 24.8 °F 17.9 °F 17.6 °F 74% 30.14 in 10.0 mi SSE 5.8 mph - N/A   Overcast
4:00 PM 24.8 °F 17.9 °F 17.6 °F 74% 30.14 in 10.0 mi ESE 5.8 mph - N/A   Overcast
4:20 PM 24.8 °F 17.9 °F 17.6 °F 74% 30.14 in 10.0 mi SSE 5.8 mph - N/A   Overcast
4:40 PM 24.8 °F 20.5 °F 17.6 °F 74% 30.14 in 10.0 mi South 3.5 mph - N/A   Mostly Cloudy
5:00 PM 24.8 °F - 17.6 °F 74% 30.14 in 10.0 mi Calm Calm - N/A   Scattered Clouds
5:20 PM 24.8 °F 20.5 °F 17.6 °F 74% 30.15 in 10.0 mi South 3.5 mph - N/A   Mostly Cloudy
5:40 PM 23.0 °F 18.4 °F 19.4 °F 86% 30.15 in 10.0 mi SSW 3.5 mph - N/A   Overcast
6:00 PM 24.8 °F 19.1 °F 19.4 °F 80% 30.16 in 10.0 mi SSW 4.6 mph - N/A   Overcast
6:20 PM 26.6 °F 19.1 °F 21.2 °F 80% 30.16 in 10.0 mi SW 6.9 mph - N/A   Overcast
6:40 PM 28.4 °F 21.2 °F 23.0 °F 80% 30.16 in 10.0 mi SW 6.9 mph - N/A   Overcast
7:00 PM 26.6 °F 19.1 °F 21.2 °F 80% 30.16 in 10.0 mi SW 6.9 mph - N/A   Overcast
7:20 PM 26.6 °F 21.2 °F 21.2 °F 80% 30.16 in 10.0 mi SW 4.6 mph - N/A   Overcast
7:40 PM 24.8 °F 17.9 °F 21.2 °F 86% 30.17 in 10.0 mi South 5.8 mph - N/A   Overcast
8:00 PM 24.8 °F 17.9 °F 21.2 °F 86% 30.17 in 10.0 mi SSW 5.8 mph - N/A   Overcast
8:20 PM 24.8 °F 14.6 °F 21.2 °F 86% 30.17 in 10.0 mi WSW 10.4 mph - N/A   Overcast
8:40 PM 28.4 °F 18.0 °F 21.2 °F 74% 30.18 in 10.0 mi WSW 12.7 mph - N/A   Overcast
9:00 PM 28.4 °F 18.5 °F 21.2 °F 74% 30.17 in 10.0 mi SW 11.5 mph - N/A   Overcast
9:20 PM 28.4 °F 22.2 °F 21.2 °F 74% 30.17 in 10.0 mi SSW 5.8 mph - N/A   Overcast
9:40 PM 30.2 °F 24.3 °F 21.2 °F 69% 30.17 in 10.0 mi SSW 5.8 mph - N/A   Overcast
10:00 PM 28.4 °F 23.3 °F 21.2 °F 74% 30.16 in 10.0 mi SSW 4.6 mph - N/A   Overcast
10:20 PM 28.4 °F 22.2 °F 21.2 °F 74% 30.16 in 10.0 mi SSW 5.8 mph - N/A   Overcast
11:00 PM 30.2 °F 22.6 °F 19.4 °F 64% 30.15 in 10.0 mi SW 8.1 mph - N/A   Overcast
11:20 PM 26.6 °F 20.0 °F 19.4 °F 74% 30.15 in 10.0 mi South 5.8 mph - N/A   Overcast
11:40 PM 26.6 °F 20.0 °F 21.2 °F 80% 30.14 in 10.0 mi SSW 5.8 mph - N/A   Overcast